Tracking 31027 objects as of 19-Jul-2025
HD Live streaming from Space Station
objects crossing your sky now

STARLINK-32686

Track STARLINK-32686 now!
10-day predictions
STARLINK-32686 is classified as:


NORAD ID: 62192
Int'l Code: 2024-229A
Perigee: 489.7 km
Apogee: 490.6 km
Inclination: 43.0 °
Period: 94.3 minutes
Semi major axis: 6861 km
RCS: Unknown
Launch date: December 4, 2024
Source: United States (US)
Launch site: AIR FORCE EASTERN TEST RANGE (AFETR)
Your satellite tracking list
STARLINK-30236
Track 1 satellite(s)




NASA's NSSDC Master Catalog

Two Line Element Set (TLE):
1 62192U 24229A   25199.86977715  .00020139  00000-0  73900-3 0  9992
2 62192  42.9958 147.5791 0000709 295.8238  64.2540 15.27595005 35970
Source of the keplerian elements: AFSPC